Location: Davayat
(45.9471°N, 3.1105°E)
Time: 22:46:00
(UTC+00:00)

Meteor 2-12 Rocket - Pass Details

Date: 23 April 2021
Orbit: 935 x 958 km, 82.5° (Epoch: 16 May)

Event Time Altitude Azimuth Distance (km) Brightness Sun altitude
Rises 00:20:38 0° 347° (NNW) 3,630 8.4 -31.0°
Reaches altitude 10° 00:23:11 10° 343° (NNW) 2,677 7.5 -30.9°
Enters shadow 00:28:18 51° 296° (WNW) 1,178 4.9 -30.7°
